Weather History for Agadir Al Massira, Morocco

Change the Weather History Date:

Wednesday, January 8, 2014

  Actual Average Record
Temperature  
Mean Temperature 65 °F -  
Max Temperature 87 °F - - ()
Min Temperature 43 °F - - ()
Growing Degree Days 15 (Base 50)    
Moisture  
Dew Point 27 °F    
Average Humidity 23    
Maximum Humidity 44    
Minimum Humidity 5    
Precipitation  
Precipitation 0.00 in - - ()
Sea Level Pressure  
Sea Level Pressure 30.02 in    
Wind  
Wind Speed 7 mph ()    
Max Wind Speed 16 mph    
Max Gust Speed -    
Visibility 6.0 miles    
Events      
T = Trace of Precipitation, MM = Missing Value Source: Averaged Metar Reports

Daily Weather History Graph

Daily Weather History Graph

Search for Another Location

Airport:

Trip Planner

Search our weather history database for the weather conditions in past years. The results will help you decide how hot, cold, wet, or windy it might be!

Date:

Astronomy

Jan. 08, 2014 Rise Set
Actual Time 7:35 AM WET 5:53 PM WET
Civil Twilight 7:09 AM WET 6:19 PM WET
Nautical Twilight 6:39 AM WET 6:49 PM WET
Astronomical Twilight 6:10 AM WET 7:18 PM WET
Moon 12:24 PM WET (1/8) 12:42 AM WET (1/8)
Length of Visible Light 11h 10m
Length of Day
10h 18m
First Quarter, 53% of the Moon is Illuminated
Jan 8
First Quarter
Jan 16
Full
Jan 24
Last Quarter
Jan 30
New
Feb 6
First Quarter

Hourly Weather History & Observations

Time (WET) Temp. Dew Point Humidity Pressure Visibility Wind Dir Wind Speed Gust Speed Precip Events Conditions
12:00 AM 49 °F 28 °F 32% 30.12 in - Calm Calm - -  
12:00 AM 50.0 °F 28.4 °F 43% 30.09 in - Calm Calm - N/A   Unknown
1:00 AM 53.6 °F 30.2 °F 41% 30.06 in - ENE 8.1 mph - N/A   Unknown
2:00 AM 51.8 °F 30.2 °F 44% 30.06 in - ENE 9.2 mph - N/A   Unknown
3:00 AM 51 °F 30 °F 33% 30.08 in - East 8.1 mph - -  
3:00 AM 51.8 °F 30.2 °F 44% 30.06 in - East 8.1 mph - N/A   Unknown
4:00 AM 53.6 °F 28.4 °F 38% 30.06 in - ENE 11.5 mph - N/A   Clear
5:00 AM 53.6 °F 28.4 °F 38% 30.04 in - ENE 9.2 mph - N/A   Clear
6:00 AM 52 °F 28 °F 27% 30.07 in 6 mi ENE 8.1 mph - -  
6:00 AM 51.8 °F 28.4 °F 41% 30.06 in - ENE 8.1 mph - N/A   Clear
7:00 AM 51.8 °F 26.6 °F 38% 30.06 in - ENE 9.2 mph - N/A   Unknown
8:00 AM 51.8 °F 26.6 °F 38% 30.06 in - ENE 9.2 mph - N/A   Clear
9:00 AM 61 °F 28 °F 17% 30.09 in 6 mi ENE 10.4 mph - -  
9:00 AM 60.8 °F 28.4 °F 29% 30.06 in - ENE 10.4 mph - N/A   Clear
10:00 AM 71.6 °F 28.4 °F 20% 30.09 in 6.2 mi NE 11.5 mph - N/A   Unknown
11:00 AM 78.8 °F 24.8 °F 14% 30.06 in - ENE 13.8 mph - N/A   Clear
12:00 PM 82 °F 26 °F 6% 30.03 in 6 mi ENE 16.1 mph - -  
12:00 PM 82.4 °F 26.6 °F 13% 30.04 in - ENE 16.1 mph - N/A   Clear
1:00 PM 84.2 °F 26.6 °F 12% 29.98 in - ENE 15.0 mph - N/A   Clear
2:00 PM 86.0 °F 26.6 °F 12% 29.95 in - ESE 10.4 mph - N/A   Clear
3:00 PM 87 °F 26 °F 5% 29.93 in 6 mi Calm Calm - -   Clear
3:00 PM 86.0 °F 26.6 °F 12% 29.92 in - Calm Calm - N/A   Clear
4:00 PM 86.0 °F 24.8 °F 11% 29.92 in - West 4.6 mph - N/A   Clear
5:00 PM 82.4 °F 24.8 °F 12% 29.92 in - SE 6.9 mph - N/A   Clear
6:00 PM 75 °F 26 °F 8% 29.95 in 6 mi Calm Calm - -   Clear
6:00 PM 75.2 °F 26.6 °F 17% 29.95 in - Calm Calm - N/A   Clear
7:00 PM 69.8 °F 28.4 °F 21% 29.95 in - Calm Calm - N/A   Clear
8:00 PM 73.4 °F 24.8 °F 16% 29.95 in - East 10.4 mph - N/A   Clear
9:00 PM 71 °F 23 °F 8% 29.98 in 6 mi East 12.7 mph - -   Clear
9:00 PM 71.6 °F 23.0 °F 16% 29.98 in - East 12.7 mph - N/A   Clear
10:00 PM 71.6 °F 23.0 °F 16% 29.98 in - ENE 15.0 mph - N/A   Clear
11:00 PM 71.6 °F 23.0 °F 16% 29.98 in - ENE 15.0 mph - N/A   Clear